Regional Weather Roundup
Issued by NWS State College, PA

Home | Current Version | Previous Version | Graphics & Text | Print | Product List | Glossary Off
Versions: 1 2 3 4 5 6 7 8 9 10 11 12 13 14 15 16 17 18 19 20 21 22 23 24 25 26 27 28 29 30 31 32 33 34 35 36 37 38 39 40 41 42 43 44 45 46 47 48 49 50

161
ASUS41 KCTP 082003
RWRCTP

REGIONAL WEATHER ROUNDUP
NATIONAL WEATHER SERVICE STATE COLLEGE PA
300 PM EST MON FEB 08 2016

Note: "fair" indicates few or no clouds below 12,000 feet with no
significant weather and/or obstructions to visibility.

* = STATION THAT DOES NOT REPORT PRECIPITATION /E.G. RAIN...SNOW...ETC/
    THUNDER OR FOG.

PAZ002>004-007>009-013>016-020>023-029>032-082100-
WESTERN PENNSYLVANIA

CITY           SKY/WX    TMP DP  RH WIND       PRES   REMARKS
ERIE           CLOUDY    42  30  62 S9        29.55S
MEADVILLE      CLOUDY    42  26  53 S6        29.51F
FRANKLIN*      CLOUDY    43  25  49 SE12G18   29.53F
NEW CASTLE     LGT RAIN  38  33  82 S6G18     29.55R
BEAVER COUNTY  LGT RAIN  36  34  93 S8        29.55R
BUTLER*        CLOUDY    43  27  52 SW20      29.58R
PITTSBURGH INT FLURRIES  36  33  89 S13G20    29.56R
PITTSBURGH     LGT RAIN  39  33  79 SW14      29.56R
INDIANA*       MOSUNNY   45  23  42 S14G21    29.58F
LATROBE        NOT AVBL
WASHINGTON CO* CLOUDY    36  34  93 S7        29.57S
$$

PAZ004>006-010>012-017>019-024>028-033>037-041-042-045-046-049>053-082100-
CENTRAL PENNSYLVANIA

CITY           SKY/WX    TMP DP  RH WIND       PRES   REMARKS
BRADFORD       CLOUDY    38  20  48 S9        29.55F
DUBOIS         CLOUDY    40  21  46 SE9G17    29.54F
CLEARFIELD     CLOUDY    41  21  44 E6        29.58F
JOHNSTOWN      CLOUDY    37  18  46 SE14G20   29.53F
ALTOONA        PTSUNNY   39  20  46 SE12      29.60F
STATE COLLEGE  PTSUNNY   39  21  48 S7        29.61F
WILLIAMSPORT   CLOUDY    41  23  48 SE6       29.66F
SELINSGROVE    CLOUDY    44  26  49 CALM      29.67F
FT INDIANTOWN  CLOUDY    40  27  59 E5        29.68F
CAPITAL CITY   PTSUNNY   43  27  53 E9        29.68F
HARRISBURG     CLOUDY    41  27  57 SE8       29.68F
YORK           PTSUNNY   43  28  55 W3        29.67F
$$

PAZ038>040-043-044-047-048-054-055-060>062-067>071-082100-
EASTERN PENNSYLVANIA

CITY           SKY/WX    TMP DP  RH WIND       PRES   REMARKS
SCRANTON       CLOUDY    40  21  46 SE7       29.64F
MOUNT POCONO   CLOUDY    33  15  47 E9        29.62S
ALLENTOWN      CLOUDY    42  23  46 VRB3      29.69F
QUAKERTOWN*    CLOUDY    39  27  60 E5        29.69F
READING        CLOUDY    41  25  53 CALM      29.69R
LANCASTER      CLOUDY    39  29  67 E6        29.69F
COATESVILLE    CLOUDY    39  28  65 E5        29.70R
POTTSTOWN      CLOUDY    40  26  57 SE3       29.71S
BLUE BELL        N/A     37  28  70 CALM      29.69F
DOYLESTOWN     CLOUDY    39  24  55 VRB7      29.68F
WILLOW GROVE   NOT AVBL
NORTH PHILA    CLOUDY    42  26  53 NE7       29.72S
PHILADELPHIA   CLOUDY    43  25  49 E6        29.71F
$$




USA.gov is the U.S. government's official web portal to all federal, state and local government web resources and services.